| time (UTC) | temp C | wind direction | speed KPH | gust KPH | rain 1hr cm | rain 24hr cm | rain mn cm | humidity % | barometer mb |
| 20260906142556 | 14 | 174 | 1.6 | 11.3 | 0.00 | 0.00 | 0.00 | 89 | 1015.6 |
| 20260906142056 | 14 | 180 | 1.6 | 8.0 | 0.00 | 0.00 | 0.00 | 89 | 1015.6 |
| 20260906141616 | 14 | 232 | 1.6 | 8.0 | 0.00 | 0.00 | 0.00 | 89 | 1015.5 |
| 20260906141059 | 14 | 0 | 1.6 | 9.7 | 0.00 | 0.00 | 0.00 | 89 | 1015.5 |
| 20260906140556 | 14 | 148 | 4.8 | 9.7 | 0.00 | 0.00 | 0.00 | 89 | 1015.4 |
| 20260906140110 | 14 | 172 | 3.2 | 9.7 | 0.00 | 0.00 | 0.00 | 89 | 1015.4 |
| 20260906135556 | 14 | 178 | 4.8 | 9.7 | 0.00 | 0.00 | 0.00 | 89 | 1015.3 |
| 20260906135053 | 14 | 167 | 3.2 | 6.4 | 0.00 | 0.00 | 0.00 | 89 | 1015.3 |
| 20260906134631 | 14 | 169 | 0.0 | 11.3 | 0.00 | 0.00 | 0.00 | 89 | 1015.2 |
| 20260906134056 | 14 | 178 | 3.2 | 11.3 | 0.00 | 0.00 | 0.00 | 89 | 1015.3 |
| 20260906133556 | 14 | 165 | 4.8 | 12.9 | 0.00 | 0.00 | 0.00 | 89 | 1015.2 |
| 20260906133107 | 14 | 159 | 4.8 | 12.9 | 0.00 | 0.00 | 0.00 | 89 | 1015.1 |
| 20260906132558 | 14 | 195 | 3.2 | 12.9 | 0.00 | 0.00 | 0.00 | 89 | 1015.1 |
| 20260906132057 | 14 | 161 | 4.8 | 16.1 | 0.00 | 0.00 | 0.00 | 89 | 1015.1 |
| 20260906131609 | 14 | 173 | 6.4 | 16.1 | 0.00 | 0.00 | 0.00 | 89 | 1015.0 |
| 20260906131055 | 14 | 175 | 6.4 | 12.9 | 0.00 | 0.00 | 0.00 | 89 | 1015.1 |
| 20260906130556 | 14 | 199 | 4.8 | 11.3 | 0.00 | 0.00 | 0.00 | 89 | 1015.0 |
| 20260906130107 | 14 | 167 | 3.2 | 9.7 | 0.00 | 0.00 | 0.00 | 89 | 1015.0 |
| 20260906125600 | 14 | 182 | 3.2 | 12.9 | 0.00 | 0.00 | 0.00 | 89 | 1014.9 |
| 20260906125054 | 14 | 178 | 4.8 | 12.9 | 0.00 | 0.00 | 0.00 | 89 | 1014.9 |
| 20260906124609 | 14 | 149 | 3.2 | 12.9 | 0.00 | 0.00 | 0.00 | 89 | 1014.9 |
| 20260906124057 | 14 | 158 | 6.4 | 14.5 | 0.00 | 0.00 | 0.00 | 89 | 1014.9 |
| 20260906123556 | 14 | 156 | 6.4 | 14.5 | 0.00 | 0.00 | 0.00 | 89 | 1014.9 |
| 20260906123102 | 14 | 146 | 4.8 | 17.7 | 0.00 | 0.00 | 0.00 | 89 | 1014.9 |
| 20260906122556 | 14 | 161 | 6.4 | 17.7 | 0.00 | 0.00 | 0.00 | 90 | 1014.7 |
| 20260906122056 | 14 | 182 | 6.4 | 11.3 | 0.00 | 0.00 | 0.00 | 90 | 1014.7 |
| 20260906121607 | 14 | 159 | 3.2 | 11.3 | 0.00 | 0.00 | 0.00 | 90 | 1014.6 |
| 20260906121057 | 14 | 154 | 4.8 | 11.3 | 0.00 | 0.00 | 0.00 | 90 | 1014.6 |
| 20260906120554 | 14 | 181 | 4.8 | 11.3 | 0.00 | 0.00 | 0.00 | 90 | 1014.7 |
| 20260906120108 | 14 | 174 | 4.8 | 11.3 | 0.00 | 0.00 | 0.00 | 90 | 1014.9 |
| 20260906115554 | 14 | 155 | 3.2 | 11.3 | 0.00 | 0.00 | 0.00 | 90 | 1014.9 |
| 20260906115054 | 14 | 151 | 4.8 | 9.7 | 0.00 | 0.00 | 0.00 | 90 | 1014.8 |
| 20260906114631 | 14 | 163 | 3.2 | 14.5 | 0.00 | 0.00 | 0.00 | 90 | 1014.9 |
| 20260906114054 | 14 | 125 | 4.8 | 14.5 | 0.00 | 0.00 | 0.00 | 91 | 1014.9 |
| 20260906113551 | 14 | 178 | 6.4 | 11.3 | 0.00 | 0.00 | 0.00 | 91 | 1014.9 |
| 20260906113101 | 14 | 178 | 4.8 | 11.3 | 0.00 | 0.00 | 0.00 | 91 | 1014.9 |
| 20260906112551 | 14 | 156 | 4.8 | 11.3 | 0.00 | 0.00 | 0.00 | 91 | 1014.9 |
| 20260906112055 | 14 | 165 | 4.8 | 11.3 | 0.00 | 0.00 | 0.00 | 91 | 1014.9 |
| 20260906111626 | 14 | 0 | 1.6 | 9.7 | 0.00 | 0.00 | 0.00 | 91 | 1014.8 |
| 20260906111058 | 14 | 157 | 3.2 | 9.7 | 0.00 | 0.00 | 0.00 | 92 | 1014.7 |
| 20260906110553 | 14 | 171 | 3.2 | 9.7 | 0.00 | 0.00 | 0.00 | 92 | 1014.6 |
| 20260906105552 | 13 | 160 | 3.2 | 8.0 | 0.00 | 0.00 | 0.00 | 92 | 1014.7 |
| 20260906105055 | 13 | 0 | 1.6 | 8.0 | 0.00 | 0.00 | 0.00 | 92 | 1014.7 |
| 20260906104607 | 13 | 140 | 1.6 | 8.0 | 0.00 | 0.00 | 0.00 | 92 | 1014.7 |
| 20260906104055 | 13 | 0 | 1.6 | 8.0 | 0.00 | 0.00 | 0.00 | 92 | 1014.7 |
| 20260906103553 | 13 | 146 | 1.6 | 8.0 | 0.00 | 0.00 | 0.00 | 92 | 1014.7 |
| 20260906103107 | 13 | 126 | 0.0 | 6.4 | 0.00 | 0.00 | 0.00 | 92 | 1014.7 |
| 20260906102552 | 13 | 0 | 1.6 | 6.4 | 0.00 | 0.00 | 0.00 | 92 | 1014.9 |
| 20260906102051 | 13 | 0 | 0.0 | 1.6 | 0.00 | 0.00 | 0.00 | 92 | 1014.7 |
| 20260906101601 | 13 | 0 | 0.0 | 3.2 | 0.00 | 0.00 | 0.00 | 91 | 1014.7 |
| 20260906101056 | 13 | 0 | 0.0 | 3.2 | 0.00 | 0.00 | 0.00 | 91 | 1014.7 |
| 20260906100554 | 14 | 163 | 0.0 | 6.4 | 0.00 | 0.00 | 0.00 | 91 | 1014.6 |
| 20260906100100 | 14 | 0 | 0.0 | 9.7 | 0.00 | 0.00 | 0.00 | 92 | 1014.6 |
| 20260906095554 | 14 | 169 | 1.6 | 9.7 | 0.00 | 0.00 | 0.00 | 92 | 1014.4 |
| 20260906095054 | 14 | 268 | 4.8 | 9.7 | 0.00 | 0.00 | 0.00 | 92 | 1014.5 |
| 20260906094601 | 14 | 224 | 1.6 | 8.0 | 0.00 | 0.00 | 0.00 | 92 | 1014.5 |
| 20260906094055 | 14 | 0 | 1.6 | 8.0 | 0.00 | 0.00 | 0.00 | 92 | 1014.7 |
| 20260906093551 | 14 | 245 | 0.0 | 11.3 | 0.00 | 0.00 | 0.00 | 92 | 1014.7 |
| 20260906093108 | 14 | 193 | 1.6 | 11.3 | 0.00 | 0.00 | 0.00 | 92 | 1014.7 |
| 20260906092555 | 14 | 211 | 3.2 | 11.3 | 0.00 | 0.00 | 0.00 | 91 | 1014.7 |
| 20260906092056 | 14 | 244 | 3.2 | 8.0 | 0.00 | 0.00 | 0.00 | 91 | 1014.7 |
| 20260906091607 | 14 | 233 | 3.2 | 11.3 | 0.00 | 0.00 | 0.00 | 91 | 1014.7 |
| 20260906091054 | 14 | 223 | 1.6 | 16.1 | 0.00 | 0.00 | 0.00 | 91 | 1014.8 |
| 20260906090551 | 14 | 241 | 3.2 | 16.1 | 0.00 | 0.00 | 0.00 | 91 | 1014.8 |
| 20260906090115 | 14 | 219 | 0.0 | 11.3 | 0.00 | 0.00 | 0.00 | 91 | 1014.9 |
| 20260906085551 | 14 | 229 | 1.6 | 11.3 | 0.00 | 0.00 | 0.00 | 91 | 1014.9 |
| 20260906085051 | 14 | 214 | 3.2 | 12.9 | 0.00 | 0.00 | 0.00 | 91 | 1014.9 |
| 20260906084611 | 14 | 0 | 3.2 | 12.9 | 0.00 | 0.00 | 0.00 | 91 | 1015.0 |
| 20260906084053 | 15 | 234 | 1.6 | 8.0 | 0.00 | 0.00 | 0.00 | 91 | 1014.9 |
| 20260906083555 | 15 | 240 | 1.6 | 11.3 | 0.00 | 0.00 | 0.00 | 91 | 1014.9 |
| 20260906083103 | 15 | 221 | 1.6 | 11.3 | 0.00 | 0.00 | 0.00 | 90 | 1014.9 |
| 20260906082550 | 15 | 238 | 3.2 | 14.5 | 0.00 | 0.00 | 0.00 | 90 | 1014.7 |
| 20260906082058 | 15 | 238 | 4.8 | 14.5 | 0.00 | 0.00 | 0.00 | 90 | 1014.8 |
| 20260906081606 | 15 | 0 | 3.2 | 12.9 | 0.00 | 0.00 | 0.00 | 90 | 1014.9 |
| 20260906081055 | 15 | 201 | 3.2 | 12.9 | 0.00 | 0.00 | 0.00 | 89 | 1014.8 |
| 20260906080552 | 15 | 201 | 1.6 | 8.0 | 0.00 | 0.00 | 0.00 | 89 | 1014.9 |
| 20260906075554 | 15 | 236 | 3.2 | 11.3 | 0.00 | 0.00 | 0.00 | 89 | 1014.8 |
| 20260906075054 | 15 | 212 | 1.6 | 6.4 | 0.00 | 0.00 | 0.00 | 88 | 1014.9 |
| 20260906074612 | 15 | 236 | 0.0 | 6.4 | 0.00 | 0.00 | 0.00 | 87 | 1014.9 |
| 20260906074055 | 15 | 212 | 1.6 | 6.4 | 0.00 | 0.00 | 0.00 | 87 | 1014.9 |
| 20260906073556 | 15 | 181 | 0.0 | 4.8 | 0.00 | 0.00 | 0.00 | 86 | 1014.9 |
| 20260906073110 | 15 | 0 | 0.0 | 1.6 | 0.00 | 0.00 | 0.00 | 85 | 1014.9 |
| 20260906072554 | 15 | 0 | 0.0 | 1.6 | 0.00 | 0.00 | 0.00 | 85 | 1014.9 |
| 20260906072054 | 15 | 139 | 0.0 | 1.6 | 0.00 | 0.00 | 0.00 | 85 | 1014.9 |
| 20260906071609 | 15 | 0 | 0.0 | 1.6 | 0.00 | 0.00 | 0.00 | 84 | 1014.7 |
| 20260906071052 | 15 | 0 | 0.0 | 3.2 | 0.00 | 0.00 | 0.00 | 84 | 1014.9 |
| 20260906070552 | 15 | 0 | 0.0 | 3.2 | 0.00 | 0.00 | 0.00 | 84 | 1014.7 |
| 20260906070132 | 15 | 0 | 0.0 | 4.8 | 0.00 | 0.00 | 0.00 | 84 | 1014.7 |
| 20260906065557 | 15 | 139 | 0.0 | 4.8 | 0.00 | 0.00 | 0.00 | 84 | 1014.8 |
| 20260906065054 | 15 | 139 | 1.6 | 4.8 | 0.00 | 0.00 | 0.00 | 84 | 1014.9 |
| 20260906064602 | 15 | 0 | 0.0 | 0.0 | 0.00 | 0.00 | 0.00 | 83 | 1014.9 |
| 20260906064053 | 15 | 0 | 0.0 | 0.0 | 0.00 | 0.00 | 0.00 | 82 | 1014.9 |
| 20260906063554 | 15 | 0 | 0.0 | 0.0 | 0.00 | 0.00 | 0.00 | 82 | 1014.9 |
| 20260906063104 | 15 | 0 | 0.0 | 0.0 | 0.00 | 0.00 | 0.00 | 82 | 1014.9 |
| 20260906062551 | 16 | 0 | 0.0 | 0.0 | 0.00 | 0.00 | 0.00 | 81 | 1014.9 |
| 20260906062055 | 16 | 0 | 0.0 | 4.8 | 0.00 | 0.00 | 0.00 | 81 | 1015.1 |
| 20260906061635 | 16 | 0 | 0.0 | 4.8 | 0.00 | 0.00 | 0.00 | 81 | 1015.0 |
| 20260906061057 | 16 | 138 | 0.0 | 0.0 | 0.00 | 0.00 | 0.00 | 80 | 1015.1 |
| 20260906060557 | 16 | 0 | 0.0 | 0.0 | 0.00 | 0.00 | 0.00 | 80 | 1015.1 |
| 20260906060104 | 16 | 0 | 0.0 | 3.2 | 0.00 | 0.00 | 0.00 | 80 | 1015.0 |
| 20260906055553 | 16 | 0 | 0.0 | 4.8 | 0.00 | 0.00 | 0.00 | 80 | 1015.1 |
| 20260906055054 | 16 | 0 | 0.0 | 4.8 | 0.00 | 0.00 | 0.00 | 80 | 1015.1 |
| 20260906054604 | 16 | 0 | 0.0 | 4.8 | 0.00 | 0.00 | 0.00 | 80 | 1015.1 |
| 20260906054058 | 16 | 0 | 0.0 | 0.0 | 0.00 | 0.00 | 0.00 | 80 | 1015.1 |
| 20260906053557 | 16 | 0 | 0.0 | 0.0 | 0.00 | 0.00 | 0.00 | 79 | 1015.1 |
| 20260906053105 | 16 | 0 | 0.0 | 0.0 | 0.00 | 0.00 | 0.00 | 79 | 1015.1 |
| 20260906052554 | 16 | 0 | 0.0 | 0.0 | 0.00 | 0.00 | 0.00 | 79 | 1015.3 |
| 20260906052057 | 16 | 0 | 0.0 | 1.6 | 0.00 | 0.00 | 0.00 | 79 | 1015.2 |
| 20260906051604 | 16 | 0 | 0.0 | 1.6 | 0.00 | 0.00 | 0.00 | 78 | 1015.2 |
| 20260906051054 | 16 | 0 | 0.0 | 0.0 | 0.00 | 0.00 | 0.00 | 78 | 1015.3 |
| 20260906050553 | 16 | 0 | 0.0 | 0.0 | 0.00 | 0.00 | 0.00 | 78 | 1015.4 |
| 20260906050116 | 16 | 0 | 0.0 | 0.0 | 0.00 | 0.00 | 0.00 | 78 | 1015.2 |
| 20260906045554 | 16 | 0 | 0.0 | 0.0 | 0.00 | 0.00 | 0.00 | 77 | 1015.3 |
| 20260906045057 | 16 | 0 | 0.0 | 0.0 | 0.00 | 0.00 | 0.00 | 77 | 1015.3 |
| 20260906044614 | 16 | 0 | 0.0 | 0.0 | 0.00 | 0.00 | 0.00 | 77 | 1015.3 |
| 20260906044057 | 16 | 0 | 0.0 | 0.0 | 0.00 | 0.00 | 0.00 | 77 | 1015.2 |
| 20260906043556 | 16 | 0 | 0.0 | 0.0 | 0.00 | 0.00 | 0.00 | 76 | 1015.3 |
| 20260906043112 | 17 | 0 | 0.0 | 0.0 | 0.00 | 0.00 | 0.00 | 76 | 1015.2 |
| 20260906042557 | 17 | 0 | 0.0 | 0.0 | 0.00 | 0.00 | 0.00 | 75 | 1015.1 |
| 20260906042057 | 17 | 0 | 0.0 | 0.0 | 0.00 | 0.00 | 0.00 | 75 | 1015.0 |
| 20260906041620 | 17 | 0 | 0.0 | 1.6 | 0.00 | 0.00 | 0.00 | 74 | 1014.9 |
| 20260906041100 | 17 | 0 | 0.0 | 4.8 | 0.00 | 0.00 | 0.00 | 74 | 1014.9 |
| 20260906040553 | 17 | 0 | 0.0 | 8.0 | 0.00 | 0.00 | 0.00 | 75 | 1014.9 |
| 20260906040120 | 17 | 0 | 0.0 | 8.0 | 0.00 | 0.00 | 0.00 | 74 | 1014.8 |
| 20260906035556 | 17 | 290 | 0.0 | 9.7 | 0.00 | 0.00 | 0.00 | 74 | 1014.8 |
| 20260906035056 | 17 | 271 | 0.0 | 9.7 | 0.00 | 0.00 | 0.00 | 74 | 1014.6 |
| 20260906034602 | 17 | 300 | 0.0 | 14.5 | 0.00 | 0.00 | 0.00 | 73 | 1014.6 |
| 20260906034056 | 17 | 296 | 1.6 | 14.5 | 0.00 | 0.00 | 0.00 | 73 | 1014.6 |
| 20260906033556 | 17 | 348 | 3.2 | 14.5 | 0.00 | 0.00 | 0.00 | 73 | 1014.6 |
| 20260906033108 | 17 | 360 | 4.8 | 11.3 | 0.00 | 0.00 | 0.00 | 76 | 1014.6 |
| 20260906032559 | 17 | 0 | 0.0 | 6.4 | 0.00 | 0.00 | 0.00 | 80 | 1014.5 |
| 20260906032056 | 17 | 0 | 0.0 | 6.4 | 0.00 | 0.00 | 0.00 | 80 | 1014.4 |
| 20260906031612 | 17 | 108 | 3.2 | 6.4 | 0.00 | 0.00 | 0.00 | 81 | 1014.4 |
| 20260906031057 | 17 | 0 | 0.0 | 6.4 | 0.00 | 0.00 | 0.00 | 81 | 1014.2 |
| 20260906030557 | 17 | 112 | 1.6 | 6.4 | 0.00 | 0.00 | 0.00 | 81 | 1014.3 |
| 20260906030113 | 17 | 143 | 3.2 | 6.4 | 0.00 | 0.00 | 0.00 | 81 | 1014.3 |
| 20260906025556 | 17 | 167 | 1.6 | 6.4 | 0.00 | 0.00 | 0.00 | 81 | 1014.3 |
| 20260906025056 | 17 | 192 | 0.0 | 4.8 | 0.00 | 0.00 | 0.00 | 81 | 1014.2 |
| 20260906024608 | 17 | 0 | 0.0 | 4.8 | 0.00 | 0.00 | 0.00 | 80 | 1014.2 |
| 20260906024059 | 17 | 215 | 0.0 | 3.2 | 0.00 | 0.00 | 0.00 | 80 | 1014.2 |
| 20260906023555 | 18 | 227 | 0.0 | 6.4 | 0.00 | 0.00 | 0.00 | 80 | 1014.2 |
| 20260906023131 | 18 | 0 | 0.0 | 8.0 | 0.00 | 0.00 | 0.00 | 80 | 1014.2 |
| 20260906022556 | 18 | 237 | 0.0 | 8.0 | 0.00 | 0.00 | 0.00 | 79 | 1014.2 |
| 20260906022059 | 18 | 0 | 1.6 | 8.0 | 0.00 | 0.00 | 0.00 | 79 | 1014.2 |
| 20260906021608 | 18 | 323 | 0.0 | 9.7 | 0.00 | 0.00 | 0.00 | 79 | 1014.2 |
| 20260906021059 | 18 | 213 | 3.2 | 9.7 | 0.00 | 0.00 | 0.00 | 78 | 1014.3 |
| 20260906020557 | 18 | 251 | 0.0 | 11.3 | 0.00 | 0.00 | 0.00 | 78 | 1014.2 |
| 20260906020101 | 18 | 222 | 1.6 | 11.3 | 0.00 | 0.00 | 0.00 | 78 | 1014.3 |
| 20260906015557 | 18 | 221 | 0.0 | 6.4 | 0.00 | 0.00 | 0.00 | 77 | 1014.3 |
| 20260906015057 | 18 | 193 | 1.6 | 11.3 | 0.00 | 0.00 | 0.00 | 77 | 1014.3 |
| 20260906014626 | 18 | 243 | 3.2 | 11.3 | 0.00 | 0.00 | 0.00 | 77 | 1014.2 |
| 20260906014054 | 18 | 271 | 3.2 | 11.3 | 0.00 | 0.00 | 0.00 | 77 | 1014.3 |
| 20260906013557 | 18 | 215 | 1.6 | 14.5 | 0.00 | 0.00 | 0.00 | 77 | 1014.3 |
| 20260906013101 | 18 | 0 | 4.8 | 14.5 | 0.00 | 0.00 | 0.00 | 76 | 1014.3 |
| 20260906012557 | 18 | 165 | 3.2 | 11.3 | 0.00 | 0.00 | 0.00 | 76 | 1014.3 |
| 20260906012056 | 18 | 218 | 3.2 | 11.3 | 0.00 | 0.00 | 0.00 | 76 | 1014.3 |
| 20260906011601 | 18 | 205 | 4.8 | 11.3 | 0.00 | 0.00 | 0.00 | 75 | 1014.3 |
| 20260906011056 | 19 | 215 | 3.2 | 11.3 | 0.00 | 0.00 | 0.00 | 75 | 1014.4 |
| 20260906010556 | 19 | 173 | 3.2 | 11.3 | 0.00 | 0.00 | 0.00 | 74 | 1014.4 |
| 20260906005557 | 19 | 166 | 1.6 | 12.9 | 0.00 | 0.00 | 0.00 | 74 | 1014.4 |
| 20260906005058 | 20 | 220 | 3.2 | 9.7 | 0.00 | 0.00 | 0.00 | 72 | 1014.5 |
| 20260906004614 | 20 | 225 | 0.0 | 14.5 | 0.00 | 0.00 | 0.00 | 73 | 1014.4 |
| 20260906004055 | 20 | 197 | 0.0 | 16.1 | 0.00 | 0.00 | 0.00 | 72 | 1014.4 |
| 20260906003557 | 20 | 188 | 3.2 | 16.1 | 0.00 | 0.00 | 0.00 | 72 | 1014.4 |
| 20260906003109 | 20 | 221 | 6.4 | 16.1 | 0.00 | 0.00 | 0.00 | 70 | 1014.4 |
| 20260906002557 | 20 | 225 | 1.6 | 12.9 | 0.00 | 0.00 | 0.00 | 69 | 1014.3 |
| 20260906002057 | 21 | 238 | 4.8 | 12.9 | 0.00 | 0.00 | 0.00 | 68 | 1014.4 |
| 20260906001603 | 21 | 333 | 3.2 | 16.1 | 0.00 | 0.00 | 0.00 | 69 | 1014.3 |
| 20260906001056 | 21 | 252 | 1.6 | 16.1 | 0.00 | 0.00 | 0.00 | 70 | 1014.3 |
| 20260906000556 | 21 | 288 | 3.2 | 14.5 | 0.00 | 0.00 | 0.00 | 70 | 1014.3 |
| 20260906000110 | 21 | 254 | 1.6 | 17.7 | 0.00 | 0.00 | 0.00 | 70 | 1014.3 |
| 20260905235556 | 20 | 0 | 3.2 | 17.7 | 0.00 | 0.00 | 0.00 | 71 | 1014.3 |
| 20260905235056 | 20 | 232 | 6.4 | 17.7 | 0.00 | 0.00 | 0.00 | 71 | 1014.3 |
| 20260905234606 | 20 | 328 | 4.8 | 20.9 | 0.00 | 0.00 | 0.00 | 73 | 1014.3 |
| 20260905234057 | 20 | 242 | 4.8 | 22.5 | 0.00 | 0.00 | 0.00 | 73 | 1014.3 |
| 20260905233557 | 20 | 263 | 8.0 | 25.7 | 0.00 | 0.00 | 0.00 | 74 | 1014.4 |
| 20260905233109 | 20 | 281 | 8.0 | 25.7 | 0.00 | 0.00 | 0.00 | 74 | 1014.4 |
| 20260905232554 | 20 | 187 | 4.8 | 16.1 | 0.00 | 0.00 | 0.00 | 76 | 1014.4 |
| 20260905232053 | 20 | 160 | 4.8 | 22.5 | 0.00 | 0.00 | 0.00 | 77 | 1014.4 |
| 20260905231607 | 20 | 238 | 8.0 | 25.7 | 0.00 | 0.00 | 0.00 | 77 | 1014.5 |
| 20260905231051 | 20 | 225 | 3.2 | 25.7 | 0.00 | 0.00 | 0.00 | 76 | 1014.6 |
| 20260905230555 | 20 | 260 | 4.8 | 14.5 | 0.00 | 0.00 | 0.00 | 76 | 1014.7 |
| 20260905230108 | 20 | 244 | 1.6 | 12.9 | 0.00 | 0.00 | 0.00 | 74 | 1014.7 |
| 20260905225552 | 20 | 155 | 3.2 | 14.5 | 0.00 | 0.00 | 0.00 | 73 | 1014.9 |
| 20260905225051 | 20 | 246 | 3.2 | 14.5 | 0.00 | 0.00 | 0.00 | 75 | 1014.9 |
| 20260905224609 | 20 | 182 | 1.6 | 11.3 | 0.00 | 0.00 | 0.00 | 75 | 1014.9 |
| 20260905224054 | 20 | 218 | 3.2 | 12.9 | 0.00 | 0.00 | 0.00 | 76 | 1015.0 |
| 20260905223554 | 20 | 169 | 6.4 | 12.9 | 0.00 | 0.00 | 0.00 | 76 | 1014.9 |
| 20260905223103 | 20 | 175 | 3.2 | 14.5 | 0.00 | 0.00 | 0.00 | 77 | 1015.1 |
| 20260905222556 | 20 | 242 | 1.6 | 17.7 | 0.00 | 0.00 | 0.00 | 76 | 1015.0 |
| 20260905222057 | 20 | 0 | 8.0 | 17.7 | 0.00 | 0.00 | 0.00 | 76 | 1015.0 |
| 20260905221606 | 20 | 149 | 3.2 | 17.7 | 0.00 | 0.00 | 0.00 | 76 | 1015.1 |
| 20260905221052 | 20 | 129 | 3.2 | 17.7 | 0.00 | 0.00 | 0.00 | 77 | 1015.2 |
| 20260905220556 | 20 | 223 | 4.8 | 20.9 | 0.00 | 0.00 | 0.00 | 77 | 1015.2 |
| 20260905220123 | 20 | 227 | 3.2 | 20.9 | 0.00 | 0.00 | 0.00 | 77 | 1015.3 |
| 20260905215554 | 20 | 238 | 4.8 | 22.5 | 0.00 | 0.00 | 0.00 | 76 | 1015.3 |
| 20260905215053 | 20 | 288 | 8.0 | 22.5 | 0.00 | 0.00 | 0.00 | 75 | 1015.3 |
| 20260905214605 | 20 | 211 | 6.4 | 20.9 | 0.00 | 0.00 | 0.00 | 75 | 1015.3 |
| 20260905214056 | 20 | 194 | 11.3 | 20.9 | 0.00 | 0.00 | 0.00 | 73 | 1015.3 |
| 20260905213554 | 21 | 216 | 3.2 | 16.1 | 0.00 | 0.00 | 0.00 | 71 | 1015.2 |
| 20260905213108 | 21 | 241 | 4.8 | 14.5 | 0.00 | 0.00 | 0.00 | 70 | 1015.2 |
| 20260905212551 | 21 | 333 | 3.2 | 17.7 | 0.00 | 0.00 | 0.00 | 69 | 1015.1 |
| 20260905212053 | 20 | 245 | 6.4 | 17.7 | 0.00 | 0.00 | 0.00 | 69 | 1015.2 |
| 20260905211611 | 21 | 246 | 6.4 | 17.7 | 0.00 | 0.00 | 0.00 | 68 | 1015.3 |
| 20260905211055 | 21 | 321 | 1.6 | 17.7 | 0.00 | 0.00 | 0.00 | 70 | 1015.4 |
| 20260905210552 | 21 | 242 | 3.2 | 12.9 | 0.00 | 0.00 | 0.00 | 70 | 1015.3 |
| 20260905210109 | 21 | 200 | 3.2 | 12.9 | 0.00 | 0.00 | 0.00 | 71 | 1015.3 |
| 20260905205551 | 20 | 221 | 3.2 | 12.9 | 0.00 | 0.00 | 0.00 | 72 | 1015.4 |
| 20260905205057 | 20 | 202 | 4.8 | 11.3 | 0.00 | 0.00 | 0.00 | 75 | 1015.4 |
| 20260905204605 | 20 | 261 | 3.2 | 14.5 | 0.00 | 0.00 | 0.00 | 74 | 1015.3 |
| 20260905204051 | 21 | 250 | 4.8 | 14.5 | 0.00 | 0.00 | 0.00 | 73 | 1015.4 |
| 20260905203556 | 21 | 243 | 1.6 | 9.7 | 0.00 | 0.00 | 0.00 | 73 | 1015.3 |
| 20260905203102 | 20 | 320 | 1.6 | 9.7 | 0.00 | 0.00 | 0.00 | 73 | 1015.3 |
| 20260905202551 | 20 | 206 | 1.6 | 11.3 | 0.00 | 0.00 | 0.00 | 74 | 1015.2 |
| 20260905202056 | 20 | 298 | 1.6 | 11.3 | 0.00 | 0.00 | 0.00 | 75 | 1015.3 |
| 20260905201604 | 20 | 181 | 3.2 | 11.3 | 0.00 | 0.00 | 0.00 | 75 | 1015.2 |
| 20260905201053 | 20 | 267 | 4.8 | 16.1 | 0.00 | 0.00 | 0.00 | 75 | 1015.4 |
| 20260905200551 | 20 | 223 | 3.2 | 16.1 | 0.00 | 0.00 | 0.00 | 76 | 1015.4 |
| 20260905200106 | 20 | 244 | 4.8 | 16.1 | 0.00 | 0.00 | 0.00 | 76 | 1015.4 |
| 20260905195552 | 20 | 268 | 3.2 | 12.9 | 0.00 | 0.00 | 0.00 | 77 | 1015.5 |
| 20260905195053 | 20 | 259 | 4.8 | 12.9 | 0.00 | 0.00 | 0.00 | 77 | 1015.5 |
| 20260905194602 | 20 | 228 | 1.6 | 14.5 | 0.00 | 0.00 | 0.00 | 78 | 1015.6 |
| 20260905194051 | 20 | 266 | 4.8 | 16.1 | 0.00 | 0.00 | 0.00 | 77 | 1015.7 |
| 20260905193550 | 20 | 178 | 4.8 | 16.1 | 0.00 | 0.00 | 0.00 | 77 | 1015.6 |
| 20260905193102 | 20 | 217 | 3.2 | 14.5 | 0.00 | 0.00 | 0.00 | 76 | 1015.6 |
| 20260905192552 | 20 | 307 | 1.6 | 9.7 | 0.00 | 0.00 | 0.00 | 76 | 1015.6 |
| 20260905192053 | 20 | 258 | 1.6 | 11.3 | 0.00 | 0.00 | 0.00 | 76 | 1015.6 |
| 20260905191604 | 20 | 221 | 3.2 | 11.3 | 0.00 | 0.00 | 0.00 | 76 | 1015.6 |
| 20260905191051 | 20 | 322 | 1.6 | 11.3 | 0.00 | 0.00 | 0.00 | 75 | 1015.6 |
| 20260905190551 | 20 | 284 | 1.6 | 16.1 | 0.00 | 0.00 | 0.00 | 74 | 1015.6 |
| 20260905190113 | 20 | 266 | 4.8 | 16.1 | 0.00 | 0.00 | 0.00 | 74 | 1015.5 |
| 20260905185553 | 20 | 265 | 1.6 | 9.7 | 0.00 | 0.00 | 0.00 | 73 | 1015.5 |
| 20260905185052 | 20 | 272 | 3.2 | 12.9 | 0.00 | 0.00 | 0.00 | 73 | 1015.5 |
| 20260905184604 | 20 | 268 | 3.2 | 12.9 | 0.00 | 0.00 | 0.00 | 72 | 1015.5 |
| 20260905184051 | 20 | 221 | 1.6 | 9.7 | 0.00 | 0.00 | 0.00 | 72 | 1015.5 |
| 20260905183551 | 20 | 236 | 1.6 | 11.3 | 0.00 | 0.00 | 0.00 | 72 | 1015.5 |
| 20260905183125 | 20 | 270 | 1.6 | 11.3 | 0.00 | 0.00 | 0.00 | 72 | 1015.5 |
| 20260905182551 | 20 | 267 | 3.2 | 11.3 | 0.00 | 0.00 | 0.00 | 72 | 1015.6 |
| 20260905182052 | 20 | 278 | 1.6 | 9.7 | 0.00 | 0.00 | 0.00 | 72 | 1015.6 |
| 20260905181610 | 20 | 241 | 1.6 | 9.7 | 0.00 | 0.00 | 0.00 | 72 | 1015.6 |
| 20260905181053 | 20 | 0 | 3.2 | 9.7 | 0.00 | 0.00 | 0.00 | 72 | 1015.5 |
| 20260905180554 | 20 | 238 | 3.2 | 11.3 | 0.00 | 0.00 | 0.00 | 74 | 1015.6 |
| 20260905180106 | 20 | 252 | 3.2 | 11.3 | 0.00 | 0.00 | 0.00 | 74 | 1015.6 |
| 20260905175551 | 19 | 192 | 3.2 | 11.3 | 0.00 | 0.00 | 0.00 | 75 | 1015.5 |
| 20260905175054 | 19 | 271 | 3.2 | 11.3 | 0.00 | 0.00 | 0.00 | 75 | 1015.5 |
| 20260905174606 | 19 | 202 | 1.6 | 11.3 | 0.00 | 0.00 | 0.00 | 75 | 1015.6 |
| 20260905174052 | 19 | 234 | 3.2 | 11.3 | 0.00 | 0.00 | 0.00 | 75 | 1015.6 |
| 20260905173552 | 19 | 225 | 1.6 | 8.0 | 0.00 | 0.00 | 0.00 | 76 | 1015.5 |
| 20260905173103 | 19 | 226 | 1.6 | 8.0 | 0.00 | 0.00 | 0.00 | 76 | 1015.5 |
| 20260905172555 | 19 | 200 | 3.2 | 11.3 | 0.00 | 0.00 | 0.00 | 75 | 1015.5 |
| 20260905172052 | 19 | 134 | 4.8 | 11.3 | 0.00 | 0.00 | 0.00 | 75 | 1015.5 |
| 20260905171606 | 19 | 219 | 1.6 | 9.7 | 0.00 | 0.00 | 0.00 | 76 | 1015.4 |
| 20260905171051 | 18 | 266 | 1.6 | 9.7 | 0.00 | 0.00 | 0.00 | 76 | 1015.4 |
| 20260905170552 | 18 | 185 | 3.2 | 9.7 | 0.00 | 0.00 | 0.00 | 77 | 1015.3 |
| 20260905165551 | 18 | 0 | 0.0 | 8.0 | 0.00 | 0.00 | 0.00 | 78 | 1015.2 |
| 20260905165051 | 18 | 244 | 3.2 | 9.7 | 0.00 | 0.00 | 0.00 | 79 | 1015.3 |
| 20260905164608 | 18 | 0 | 3.2 | 9.7 | 0.00 | 0.00 | 0.00 | 78 | 1015.2 |
| 20260905164054 | 18 | 229 | 1.6 | 11.3 | 0.00 | 0.00 | 0.00 | 79 | 1015.2 |
| 20260905163554 | 18 | 121 | 3.2 | 12.9 | 0.00 | 0.00 | 0.00 | 80 | 1015.3 |
| 20260905163106 | 18 | 170 | 3.2 | 12.9 | 0.00 | 0.00 | 0.00 | 80 | 1015.2 |
| 20260905162552 | 18 | 215 | 6.4 | 12.9 | 0.00 | 0.00 | 0.00 | 79 | 1015.2 |
| 20260905162051 | 17 | 113 | 1.6 | 12.9 | 0.00 | 0.00 | 0.00 | 81 | 1015.2 |
| 20260905161602 | 17 | 0 | 1.6 | 12.9 | 0.00 | 0.00 | 0.00 | 82 | 1015.2 |
| 20260905161054 | 17 | 156 | 3.2 | 11.3 | 0.00 | 0.00 | 0.00 | 81 | 1015.2 |
| 20260905160557 | 17 | 138 | 4.8 | 11.3 | 0.00 | 0.00 | 0.00 | 82 | 1015.2 |
| 20260905160124 | 17 | 167 | 3.2 | 11.3 | 0.00 | 0.00 | 0.00 | 82 | 1015.2 |
| 20260905155551 | 16 | 144 | 4.8 | 14.5 | 0.00 | 0.00 | 0.00 | 83 | 1015.2 |
| 20260905155054 | 16 | 131 | 4.8 | 14.5 | 0.00 | 0.00 | 0.00 | 83 | 1015.3 |
| 20260905154607 | 16 | 133 | 4.8 | 12.9 | 0.00 | 0.00 | 0.00 | 83 | 1015.3 |
| 20260905154055 | 16 | 150 | 1.6 | 12.9 | 0.00 | 0.00 | 0.00 | 85 | 1015.3 |
| 20260905153552 | 16 | 171 | 4.8 | 14.5 | 0.00 | 0.00 | 0.00 | 85 | 1015.3 |
| 20260905153112 | 16 | 158 | 4.8 | 14.5 | 0.00 | 0.00 | 0.00 | 86 | 1015.3 |
| 20260905152552 | 16 | 141 | 6.4 | 14.5 | 0.00 | 0.00 | 0.00 | 87 | 1015.3 |
| 20260905152058 | 16 | 150 | 4.8 | 11.3 | 0.00 | 0.00 | 0.00 | 89 | 1015.3 |
| 20260905151604 | 15 | 136 | 4.8 | 12.9 | 0.00 | 0.00 | 0.00 | 89 | 1015.1 |
| 20260905151050 | 15 | 147 | 6.4 | 12.9 | 0.00 | 0.00 | 0.00 | 90 | 1015.2 |
| 20260905150551 | 15 | 143 | 3.2 | 8.0 | 0.00 | 0.00 | 0.00 | 91 | 1015.2 |
| 20260905150105 | 15 | 137 | 1.6 | 11.3 | 0.00 | 0.00 | 0.00 | 92 | 1015.1 |
| 20260905145556 | 15 | 116 | 0.0 | 11.3 | 0.00 | 0.00 | 0.00 | 92 | 1015.2 |
| 20260905145058 | 15 | 154 | 1.6 | 9.7 | 0.00 | 0.00 | 0.00 | 93 | 1015.1 |
| 20260905144606 | 14 | 121 | 3.2 | 9.7 | 0.00 | 0.00 | 0.00 | 93 | 1015.0 |
| 20260905144055 | 14 | 124 | 3.2 | 9.7 | 0.00 | 0.00 | 0.00 | 94 | 1015.0 |
| 20260905143553 | 13 | 130 | 3.2 | 9.7 | 0.00 | 0.00 | 0.00 | 94 | 1015.1 |
| 20260905143109 | 13 | 128 | 1.6 | 6.4 | 0.00 | 0.00 | 0.00 | 94 | 1015.0 |